Location: Dentlein
(49.1477°N, 10.4231°E)
Time: 02:46:17
(UTC+00:00)

Cosmos 2151 Rocket - Pass Details

Date: 23 May 2024
Orbit: 614 x 639 km, 82.5° (Epoch: 13 June)

Event Time Altitude Azimuth Distance (km) Brightness Sun altitude
Rises 02:34:09 0° 346° (NNW) 2,944 7.5 -7.4°
Reaches altitude 10° 02:36:26 10° 341° (NNW) 2,027 6.6 -7.1°
Maximum altitude 02:40:48 52° 266° (W) 783 3.8 -6.6°
Drops below altitude 10° 02:45:06 10° 190° (S) 1,995 5.7 -6.1°
Sets 02:47:21 0° 185° (S) 2,892 6.6 -5.8°
